Wind_Speed
16 16 16 16 16 15 15 15 14 14 13 13 13 12 12 12 11 11 10 11 12 12 12 13 14 14 13 11 10 10 9 9 9 8 7 5 6 8 7 7 7 6 7 10 11 10 10 8 7 6 7 7 5 5 5 5 5 6 5 3 3 2 1 2 3 4 5 6 6 7 7 8 9 5 4 6 9 10 9 9 9 9 9 10 13 15 10 5
16 16 16 16 16 16 16 16 15 15 14 14 14 13 13 13 13 12 12 11 11 11 12 13 13 14 13 12 11 11 11 10 9 5 3 4 4 5 7 7 7 6 9 12 11 10 9 7 6 6 6 6 6 4 4 6 6 7 4 3 3 1 2 3 6 6 6 7 8 9 9 8 9 7 3 6 9 9 10 9 9 9 9 12 16 15 12 6
16 16 16 15 15 15 15 15 15 15 15 15 15 15 14 14 14 13 13 12 11 11 12 12 13 13 13 12 12 11 11 11 6 2 2 2 3 5 7 7 7 7 11 12 11 10 6 6 6 5 4 4 5 4 4 5 6 6 4 4 2 3 5 6 7 8 8 10 11 11 10 10 10 8 6 7 11 10 10 8 7 8 7 10 13 12 10 6
16 16 16 16 15 15 15 14 14 15 15 16 16 16 15 15 15 14 14 13 12 11 11 11 11 12 12 12 12 11 12 11 3 5 1 2 3 5 7 7 7 9 12 13 12 10 6 5 5 3 5 4 4 4 5 5 4 3 3 6 5 7 7 6 7 7 9 10 11 13 11 12 10 8 9 9 9 9 9 6 6 9 3 9 11 10 8 7
17 17 17 16 16 15 15 15 14 14 14 15 16 16 16 16 16 15 14 14 13 12 11 11 11 11 11 11 11 10 11 7 5 4 1 3 4 5 8 7 8 11 13 13 11 9 6 5 5 5 6 3 3 5 4 3 4 4 6 7 8 8 7 7 9 8 9 10 11 12 11 11 9 8 12 11 9 8 6 6 5 7 2 8 10 8 7 7
17 17 17 17 17 17 16 16 15 15 14 14 15 16 17 17 16 15 15 14 13 12 11 10 10 11 10 10 11 9 8 4 3 3 2 3 4 5 8 8 10 13 14 12 10 8 6 5 6 4 4 3 2 3 0 1 4 5 6 6 8 8 8 10 11 9 8 10 11 11 11 11 10 11 12 12 14 10 5 6 5 3 4 7 8 8 7 8
17 17 18 18 18 18 17 16 16 15 15 14 15 15 16 16 16 16 15 14 13 12 11 10 10 10 10 10 10 6 7 5 2 5 2 3 4 5 9 10 12 14 14 12 10 8 6 4 4 2 4 3 1 1 1 2 7 7 6 5 8 9 10 13 12 11 10 11 13 12 12 12 13 12 10 13 18 12 8 8 6 4 5 7 6 7 7 9
17 17 17 18 18 18 18 17 17 16 16 15 15 15 15 15 15 15 15 14 13 12 10 9 8 9 9 9 8 6 7 5 4 4 3 3 4 6 10 13 14 14 13 11 8 6 5 3 2 2 5 1 1 1 2 6 8 7 7 8 10 11 13 14 13 13 11 11 13 12 14 15 14 11 11 17 18 13 11 9 9 9 7 7 7 7 8 10
18 18 18 18 19 19 18 18 17 17 17 17 16 16 16 15 15 14 14 13 13 12 9 8 8 8 9 7 8 8 4 5 7 5 4 3 4 7 12 14 14 14 12 10 7 5 4 3 1 3 4 2 1 2 3 6 3 1 8 12 13 15 14 14 13 12 10 9 8 9 13 14 10 7 11 20 19 13 12 11 11 12 10 9 9 8 9 10
20 20 19 19 19 19 19 19 18 18 17 17 17 17 16 16 15 14 13 13 12 11 9 7 7 6 7 6 8 6 1 5 8 6 5 5 5 7 12 15 14 12 11 9 7 5 2 2 0 3 5 2 2 4 4 5 4 6 11 14 15 16 14 12 11 9 7 6 5 8 11 9 5 4 9 12 9 11 13 12 12 12 11 11 11 10 11 12
20 20 20 20 20 20 20 19 19 18 18 17 17 17 16 16 16 14 13 12 11 11 9 8 7 7 7 6 8 6 4 6 7 7 6 6 6 5 8 14 15 12 11 9 7 4 2 1 1 4 4 1 4 8 5 3 5 9 13 15 15 14 12 10 7 6 6 2 3 8 10 8 6 8 12 6 1 9 12 12 13 12 12 12 12 12 13 13
19 20 20 20 20 20 20 20 19 18 18 18 17 17 17 16 16 15 14 13 11 10 9 8 7 7 7 8 11 9 7 9 9 8 8 8 8 6 7 11 14 13 10 8 6 4 2 1 3 6 4 4 8 8 3 4 9 12 12 12 12 13 10 5 1 4 5 2 4 8 9 9 10 11 11 5 4 8 9 11 13 12 12 12 13 13 13 13
19 20 20 20 20 20 20 20 19 19 18 18 18 17 17 16 16 15 14 13 12 10 9 8 8 8 7 8 11 10 8 10 11 10 9 10 9 9 8 9 13 14 11 7 6 5 4 3 4 7 6 7 8 7 8 11 12 11 10 8 9 11 5 6 2 3 4 2 4 7 7 4 9 11 6 5 6 8 9 11 12 13 13 12 13 13 13 14
19 19 19 20 20 21 21 20 19 18 18 18 18 17 17 16 16 15 14 14 13 10 9 8 7 7 7 9 11 11 10 11 13 13 12 11 10 9 8 9 11 13 12 9 8 8 8 7 6 7 7 7 8 9 12 12 9 8 9 7 6 7 2 6 2 4 3 2 2 7 7 5 1 5 7 5 6 7 9 10 11 12 13 12 13 12 13 14
19 19 19 19 19 20 21 20 19 18 17 18 17 17 17 16 16 15 14 14 12 11 10 8 7 6 8 10 11 11 11 13 14 15 14 12 11 9 9 9 10 11 11 11 11 11 10 8 6 8 7 6 8 10 10 9 7 6 7 7 5 5 4 2 4 1 4 2 2 7 6 8 6 5 7 4 5 7 8 8 10 11 12 13 13 13 13 13
18 19 18 18 19 20 21 21 20 18 17 17 17 16 16 16 16 15 13 11 10 11 9 7 6 6 8 7 6 6 6 12 14 14 15 14 11 9 9 9 9 9 10 10 10 9 7 7 7 9 9 7 9 8 7 8 7 5 5 7 6 5 6 3 4 4 2 4 4 6 6 9 7 1 6 5 4 7 8 8 9 11 12 13 13 13 13 13
19 19 19 19 19 20 21 21 21 19 17 16 16 15 16 16 14 12 12 10 9 9 9 8 6 7 9 7 6 5 4 8 11 12 16 16 13 11 10 9 8 9 7 6 7 6 6 7 6 6 8 8 8 7 7 7 6 4 4 6 7 7 7 6 2 6 1 7 8 8 9 10 12 7 6 7 5 7 9 9 9 10 12 13 14 14 14 14
21 21 21 21 20 20 21 21 22 20 18 17 16 16 16 14 12 13 11 7 6 7 8 7 6 6 6 6 4 2 4 8 10 11 14 16 15 14 11 9 9 9 8 6 7 8 8 8 7 7 7 7 7 7 8 8 7 6 5 6 7 8 8 9 5 1 2 10 11 11 11 10 14 11 3 7 6 7 9 9 9 10 12 13 14 14 15 15
22 22 22 22 21 21 21 22 23 22 20 17 16 17 14 12 11 8 4 4 6 6 5 4 7 6 5 4 4 2 5 8 10 10 13 16 16 15 12 10 10 11 10 8 8 10 9 8 8 8 8 9 9 8 9 10 11 10 9 9 9 9 9 11 10 4 5 10 11 11 10 10 13 12 5 5 7 8 8 9 9 10 11 13 14 15 15 15
23 22 22 22 21 21 21 21 22 22 21 17 16 15 10 11 8 1 5 12 11 11 11 8 10 15 14 9 5 5 8 10 9 8 10 14 15 15 13 12 11 12 11 8 7 9 8 8 9 9 10 11 9 8 10 11 11 11 11 10 10 11 10 11 12 3 2 7 11 10 10 11 13 14 10 4 6 9 9 10 11 11 11 12 14 15 16 15
23 22 22 22 21 21 20 20 21 20 19 17 17 12 7 9 6 3 13 16 11 12 17 16 14 19 19 13 9 7 7 11 13 10 11 12 13 13 13 14 12 10 12 13 7 5 5 9 11 12 11 10 8 8 9 10 11 11 11 10 10 10 9 12 12 3 2 5 10 11 12 12 13 13 12 6 6 9 9 10 11 12 12 12 14 16 16 15
23 22 22 22 21 20 19 19 18 17 16 14 13 9 8 9 7 7 11 12 14 15 16 14 13 15 15 13 12 11 9 10 13 13 14 14 14 14 13 13 12 9 9 11 7 5 7 11 13 12 7 7 9 9 10 11 12 11 9 9 9 9 10 11 9 2 2 4 8 12 12 13 14 13 13 10 9 9 8 10 11 11 12 13 14 15 15 15
24 23 23 22 21 20 18 17 15 13 12 10 9 9 9 10 11 12 9 10 15 13 9 8 8 8 6 4 5 9 13 12 12 13 16 16 16 16 14 11 12 11 9 10 9 8 7 7 8 8 6 8 10 8 9 10 10 10 9 9 9 9 9 8 4 5 3 7 9 12 11 11 13 12 14 13 9 8 7 9 10 11 13 14 14 14 15 16
25 25 23 23 22 19 18 16 11 9 11 8 7 8 9 10 12 14 8 9 10 7 6 3 3 2 1 0 1 5 11 10 10 10 13 18 17 14 14 14 12 11 10 11 13 12 10 3 3 2 5 6 8 7 8 8 7 9 11 10 10 10 11 10 7 5 10 11 8 8 10 8 10 10 10 7 5 6 7 8 10 12 14 14 14 14 15 17
25 25 25 24 22 20 19 13 6 8 10 7 6 9 10 10 12 13 7 7 6 3 3 3 3 0 1 1 2 4 6 7 8 8 10 17 18 12 11 14 11 10 13 15 13 11 12 6 5 5 6 7 10 8 8 8 7 9 10 11 12 13 13 13 11 8 9 8 3 3 9 7 6 7 7 5 5 7 7 7 10 12 13 15 16 17 17 18
25 25 25 24 23 22 16 8 6 10 8 5 7 9 10 10 11 10 5 5 3 2 3 4 3 1 2 1 1 4 5 5 6 6 9 14 16 13 9 9 9 10 10 10 9 7 8 7 7 10 11 10 11 9 10 10 8 8 7 7 10 12 12 12 11 8 8 8 2 4 9 8 7 8 9 8 9 10 9 9 12 12 13 16 17 18 18 18
24 24 25 24 23 22 16 10 11 10 5 6 8 9 9 10 9 8 3 4 2 1 2 3 3 4 4 1 3 5 2 2 2 3 7 11 13 12 10 8 9 7 4 4 5 4 6 10 10 11 12 10 9 8 9 9 8 7 3 4 9 10 10 10 10 9 8 9 8 7 8 9 9 9 10 10 10 12 12 12 13 13 14 16 17 17 17 18
24 23 24 22 22 21 17 14 13 9 6 8 8 8 8 9 7 4 4 4 1 1 2 3 2 5 6 1 4 4 4 3 2 3 4 9 12 10 11 10 8 7 8 7 6 3 6 10 10 10 9 8 8 8 7 7 9 8 4 5 8 9 10 10 10 9 9 9 9 9 8 8 9 8 8 8 9 12 12 12 12 11 12 14 16 16 17 18
23 22 23 22 20 19 16 14 12 10 8 7 6 7 7 5 4 3 4 4 0 2 2 2 2 3 6 3 5 3 4 3 2 3 5 8 12 7 6 9 9 7 9 11 9 3 3 4 5 7 7 7 8 8 7 8 9 8 6 7 9 9 11 11 9 9 10 9 9 11 11 9 9 9 7 5 6 8 9 8 7 6 8 8 10 13 14 15
22 21 21 22 20 18 17 13 11 10 8 6 5 5 4 2 3 4 4 2 1 1 1 1 0 3 8 3 4 2 2 2 4 3 6 6 11 8 2 3 7 7 8 10 12 10 4 3 2 6 10 10 9 8 8 11 11 7 6 9 10 10 10 9 8 8 10 10 12 16 15 11 9 7 6 3 2 5 8 7 6 5 6 5 5 9 10 13
21 20 19 20 19 18 16 12 10 10 7 6 3 1 2 3 3 5 3 1 2 0 1 2 3 3 7 5 1 4 4 2 4 1 5 4 9 9 4 4 5 6 7 8 10 12 10 7 5 8 12 12 10 10 10 11 11 9 8 9 9 8 9 8 8 7 8 9 11 13 12 11 10 6 5 4 3 5 7 8 8 8 9 7 4 5 7 10
20 19 18 18 18 16 14 11 11 9 6 5 2 3 5 4 4 6 3 1 2 2 1 2 4 5 6 5 2 5 4 1 5 4 2 2 5 4 2 2 2 4 6 6 6 7 9 9 8 9 10 10 10 8 8 9 8 8 7 7 7 7 7 7 8 7 8 9 7 4 5 8 9 8 9 9 9 9 7 7 9 11 14 14 9 5 6 8
19 18 16 16 17 16 14 12 10 7 4 3 3 5 5 5 5 5 5 3 0 3 3 3 5 6 6 5 2 4 3 1 4 4 1 3 4 3 4 5 6 5 5 4 3 4 5 6 9 10 6 6 10 8 5 4 5 7 7 6 7 7 7 8 8 7 8 10 4 2 2 7 8 7 8 10 10 7 5 7 10 12 17 18 12 7 7 7
18 17 16 14 15 15 14 11 7 4 3 3 4 6 6 7 4 2 5 4 2 2 2 4 6 7 5 2 2 4 2 1 4 4 1 3 5 3 3 7 8 4 4 5 5 5 7 5 4 4 2 2 6 6 6 6 4 6 5 6 8 7 8 8 8 8 9 9 4 3 2 6 5 2 1 3 5 5 6 8 11 13 15 15 13 10 10 10
16 15 15 12 12 13 13 9 4 3 4 4 6 6 6 7 5 2 3 2 3 3 4 5 7 8 5 1 2 3 3 1 3 3 1 1 1 1 2 5 8 6 3 5 3 2 8 5 3 3 2 1 3 2 5 8 7 4 3 6 7 6 7 7 8 9 8 9 7 4 5 6 6 5 5 6 6 6 9 9 10 11 14 16 18 17 14 12
15 13 11 9 9 11 10 6 1 4 6 5 6 7 7 4 2 1 1 3 2 4 6 6 5 6 5 3 3 2 2 3 3 2 1 2 2 3 4 4 7 7 4 3 2 1 5 3 3 2 1 2 4 5 4 7 6 2 4 7 5 4 5 7 9 7 5 8 8 6 8 8 8 9 8 7 4 6 11 14 16 18 19 18 19 21 19 14
16 12 8 5 6 8 6 2 1 5 6 6 7 6 5 2 3 2 3 4 2 3 6 5 1 2 4 2 2 2 3 3 2 2 1 2 2 3 4 3 5 7 5 4 2 2 4 5 3 4 3 2 5 5 5 5 7 6 6 5 5 3 4 5 7 6 7 10 8 8 12 9 8 6 0 4 7 11 13 14 15 18 19 20 20 23 23 19
17 12 6 3 6 6 3 0 3 6 5 6 8 6 3 1 2 3 4 4 3 3 5 5 1 0 3 4 2 2 4 3 1 3 2 2 1 3 3 2 4 6 5 4 3 2 3 7 2 1 4 4 5 5 5 5 6 6 6 5 4 7 6 5 6 7 10 11 8 11 13 10 8 5 4 8 9 11 12 12 14 16 19 21 22 24 26 24
17 9 2 3 6 5 2 1 3 5 6 6 7 5 2 0 2 4 4 4 3 3 4 4 2 1 2 3 2 1 2 3 3 2 2 1 1 2 3 1 2 5 5 4 5 2 3 6 2 4 1 5 5 6 6 3 5 5 6 5 4 5 6 7 7 7 10 11 9 11 13 9 5 1 5 6 8 9 10 11 11 14 18 21 23 25 27 28
14 6 3 4 6 3 1 2 4 5 6 4 4 2 1 0 1 2 2 3 2 3 3 3 3 4 3 2 3 1 1 3 3 3 2 1 1 2 3 2 3 5 4 3 4 3 3 4 4 3 2 4 6 3 4 5 4 4 6 6 5 4 6 7 7 8 9 10 9 9 10 6 1 4 4 4 6 7 9 10 10 13 18 21 23 24 25 27
10 4 2 4 4 1 1 2 4 5 4 3 3 2 1 2 1 0 1 1 3 3 3 4 4 4 3 2 3 2 1 3 4 4 3 2 2 1 3 3 5 5 4 5 2 3 3 4 6 7 5 7 6 3 4 7 8 8 8 8 7 6 7 8 9 9 8 8 9 8 10 6 3 4 3 4 3 5 8 10 11 14 19 20 22 24 24 26
7 4 4 7 5 1 1 4 4 3 4 2 1 2 1 2 3 2 1 3 4 3 3 4 4 4 5 5 4 2 3 5 4 4 4 2 1 1 3 3 4 4 4 4 0 3 3 4 7 8 7 8 8 6 6 8 10 10 8 7 7 6 6 8 10 9 7 8 8 8 11 7 5 7 3 4 4 7 9 11 13 15 18 19 21 24 25 25
7 8 8 9 4 2 3 5 3 3 4 1 1 2 2 2 3 3 3 4 3 2 3 3 4 4 4 4 4 4 4 4 5 4 3 3 3 4 4 2 2 2 3 3 1 2 2 4 6 7 7 7 7 5 5 6 8 8 5 3 4 4 5 6 8 8 6 9 10 9 11 7 4 7 1 5 8 11 11 13 15 16 16 17 20 24 25 24
10 10 7 7 2 3 4 4 3 3 3 2 3 5 4 3 5 5 4 3 2 2 3 3 3 4 3 3 4 5 4 3 4 3 3 3 4 6 4 2 1 2 1 1 2 3 2 5 5 6 7 6 5 5 4 5 6 5 3 3 4 5 6 6 7 7 7 12 14 12 11 7 5 4 6 11 12 13 15 17 19 19 19 18 19 22 24 23
10 7 3 5 4 1 2 2 2 3 2 2 5 5 5 4 5 5 5 5 4 3 4 4 3 3 3 3 4 5 5 5 4 2 2 3 4 5 2 2 1 2 1 3 3 4 4 6 5 6 7 7 6 5 3 2 3 4 5 6 7 8 8 8 8 8 9 12 13 12 10 9 8 9 16 19 18 18 20 22 22 21 21 20 19 20 21 22
7 3 1 4 4 2 1 3 3 4 2 2 4 4 5 6 4 3 5 7 6 5 6 5 4 4 5 5 6 7 7 7 6 4 4 5 4 3 2 1 2 3 1 2 3 5 5 7 8 10 10 10 10 11 10 9 9 10 12 13 13 12 12 10 8 10 10 11 12 13 14 15 16 16 18 19 20 21 22 24 24 21 21 21 20 20 19 19
4 2 3 4 3 1 2 3 3 3 2 3 3 1 3 6 4 3 5 5 3 4 6 5 4 6 7 6 7 8 7 7 8 7 7 6 5 3 3 3 4 3 3 3 5 5 6 7 9 12 14 14 15 16 15 14 14 15 16 18 18 17 16 14 13 14 13 10 12 14 16 16 16 16 17 18 18 18 19 23 25 24 22 22 23 23 22 20
2 2 3 4 3 1 1 3 5 4 3 3 3 2 4 6 4 3 4 4 4 4 4 4 5 6 6 5 6 6 6 8 8 8 8 7 7 6 6 7 6 4 5 7 6 4 6 8 8 11 14 16 17 18 17 15 15 16 18 19 19 19 19 18 18 19 17 14 14 17 20 19 17 17 18 17 17 17 19 21 23 24 24 23 24 25 23 21
3 2 3 3 4 3 3 4 6 6 5 4 3 4 5 6 6 4 2 3 5 5 4 6 6 5 4 5 6 7 7 7 8 8 7 7 7 7 7 8 6 5 6 7 5 3 5 6 6 9 13 16 17 16 15 15 16 17 18 20 20 19 20 20 20 21 22 21 20 23 26 23 18 17 18 19 20 22 21 20 21 23 23 22 23 24 23 22
3 2 3 4 5 4 4 5 5 5 4 3 4 4 4 6 7 5 4 5 6 5 5 7 6 4 3 4 6 8 5 3 5 6 5 6 6 6 7 7 5 5 6 5 4 4 5 5 6 8 11 15 16 15 14 15 15 17 19 20 19 18 19 20 19 19 20 21 22 24 25 20 16 16 17 19 20 19 18 18 19 20 21 22 22 23 22 22
3 3 3 5 5 3 4 5 4 4 4 4 5 4 3 5 6 5 6 5 5 5 4 4 4 3 4 5 8 9 3 2 3 5 5 7 8 7 6 5 4 5 6 6 6 6 6 7 9 9 10 12 13 13 13 13 13 17 21 21 19 18 17 17 17 17 17 18 19 20 19 14 12 12 13 15 16 16 16 17 17 18 20 22 22 22 22 22
4 3 4 5 5 4 4 4 3 4 3 2 3 4 4 4 4 5 6 4 2 1 1 3 4 4 6 8 7 4 3 3 5 6 7 8 9 9 10 9 10 9 8 7 8 7 7 8 8 8 9 11 13 13 12 10 11 14 15 15 16 18 18 17 17 18 18 16 14 14 13 12 12 12 12 14 14 14 14 15 17 19 21 22 23 22 20 19
Wind_Direction
13 12 12 11 8 5 2 359 357 352 347 340 335 331 328 327 329 331 335 337 338 340 340 343 342 337 330 319 314 316 317 318 322 314 291 262 237 230 218 197 195 191 162 148 145 144 142 146 148 148 161 170 176 156 167 197 206 228 239 240 254 239 272 349 314 310 316 311 304 315 318 302 299 286 257 257 254 254 257 250 244 246 243 253 257 259 261 223
9 8 9 9 9 7 3 359 356 354 350 345 341 336 330 324 321 320 321 323 325 329 332 337 339 338 334 324 316 314 315 319 321 310 260 241 233 216 203 199 197 180 157 152 156 158 157 157 154 173 185 174 175 182 186 190 212 240 261 265 248 277 346 321 294 291 288 291 303 307 301 294 293 296 280 264 271 258 257 258 240 243 233 251 267 263 262 233
7 5 4 4 5 5 2 1 357 354 351 347 344 341 338 333 328 322 317 315 315 317 321 328 332 334 334 328 319 313 315 316 306 191 184 210 202 193 192 196 194 172 158 162 171 175 168 159 171 196 211 192 172 200 215 187 210 242 264 261 267 8 324 296 287 284 285 291 296 298 299 291 284 282 265 264 283 271 263 270 251 259 228 228 262 265 260 226
5 3 2 0 360 360 359 358 356 355 352 349 346 343 342 339 338 334 326 319 313 313 313 317 324 328 331 333 324 317 313 303 226 156 156 188 185 187 189 191 187 170 160 168 177 182 180 176 196 218 237 219 166 217 230 193 217 249 259 274 324 336 309 308 311 298 292 292 288 292 294 286 284 270 253 255 277 274 271 283 266 288 264 202 242 259 252 218
2 1 360 357 356 355 353 352 352 352 350 348 346 344 343 341 341 341 338 331 321 315 311 311 315 320 327 331 330 324 306 296 146 148 298 174 184 185 187 189 182 168 162 170 174 182 184 187 215 215 235 233 171 220 221 200 253 266 254 276 313 308 302 318 319 312 299 291 280 279 279 284 291 260 250 247 254 273 291 300 280 291 269 195 232 244 233 216
357 357 356 355 353 352 351 350 347 345 344 343 341 341 341 343 342 340 342 340 332 323 315 313 309 314 324 327 335 329 297 313 112 217 262 157 181 178 184 185 176 167 163 169 172 187 187 196 221 208 230 230 192 243 38 183 245 267 259 271 304 302 301 308 313 312 292 279 271 275 280 282 278 262 258 244 246 259 250 252 264 268 205 196 231 234 219 206
352 353 352 351 349 348 349 348 346 342 339 336 335 335 335 340 340 338 339 339 339 332 324 320 309 309 317 324 336 324 274 295 290 236 233 168 173 165 178 176 173 168 165 175 180 190 188 198 222 219 244 221 157 253 15 277 239 254 278 298 311 307 295 299 308 303 287 275 274 281 281 272 267 272 272 248 249 253 226 225 236 222 199 205 230 230 212 196
348 348 347 346 345 343 344 345 345 341 338 334 330 328 329 334 335 335 334 335 338 336 333 327 313 309 310 323 328 295 248 246 250 235 220 195 170 159 168 168 173 171 172 187 189 194 192 196 230 261 256 237 45 245 343 296 237 231 290 313 313 304 295 299 300 297 293 280 278 277 270 268 268 279 277 258 258 251 224 218 223 222 215 216 225 223 203 190
344 344 344 342 340 339 339 341 341 340 338 334 328 325 327 329 328 330 329 330 332 333 336 326 316 308 305 318 302 281 239 223 238 229 201 185 163 162 168 170 175 175 184 197 191 201 206 210 258 302 301 351 303 272 327 300 255 267 310 312 310 302 300 303 299 302 304 289 283 269 266 269 265 279 272 260 261 245 212 200 213 223 219 213 213 214 203 194
343 342 342 340 337 336 335 336 337 337 335 333 330 327 326 325 324 325 324 325 326 327 330 320 316 303 299 309 285 281 299 236 227 207 199 183 162 165 175 180 179 178 192 201 195 202 229 243 275 317 300 277 248 280 291 294 331 329 308 306 301 296 294 296 299 310 308 286 272 270 277 272 233 236 265 268 257 217 202 197 205 214 208 208 213 211 202 199
344 343 341 339 336 333 333 334 334 334 333 332 330 328 326 324 322 323 322 320 318 320 319 308 306 293 287 282 268 282 294 239 210 202 208 176 156 165 184 191 190 187 194 203 201 201 236 247 297 292 278 268 281 280 273 286 316 309 307 303 295 291 285 276 285 319 312 298 283 279 278 257 205 221 251 273 198 194 205 206 201 207 204 205 214 211 202 201
346 345 344 342 338 335 333 333 333 332 331 329 327 328 328 324 322 322 320 317 313 313 312 303 296 285 279 266 257 267 263 228 207 211 206 179 161 157 176 194 196 195 201 211 208 207 230 247 285 282 299 332 297 289 307 310 301 301 299 297 300 294 273 235 246 340 313 344 348 290 270 238 205 222 241 225 186 201 216 215 204 208 206 200 206 205 201 203
348 346 345 344 340 337 334 334 333 331 330 327 326 327 326 325 324 322 319 318 315 313 313 305 294 281 268 259 257 260 248 225 217 213 200 187 172 164 175 185 189 195 204 214 217 227 257 289 289 289 305 302 291 309 317 296 288 292 290 289 301 289 244 141 103 326 298 4 9 296 282 252 204 208 208 173 198 213 219 221 212 207 203 199 201 198 196 203
348 347 346 344 341 337 335 335 334 332 330 326 325 325 325 324 322 321 318 316 315 313 313 306 299 280 253 254 267 264 243 226 222 213 201 190 180 177 179 180 188 197 206 217 232 246 268 287 286 284 278 271 287 304 296 281 267 279 291 276 264 271 204 121 108 315 302 91 9 295 286 304 279 154 158 177 203 215 228 230 222 211 204 200 202 202 196 200
348 347 346 345 342 337 334 334 333 334 332 326 325 324 323 321 320 318 313 310 309 307 309 304 292 271 256 260 267 265 241 225 224 216 206 197 192 191 186 189 195 202 211 223 240 253 267 280 276 273 266 255 275 283 280 274 262 264 278 264 238 252 272 137 119 332 322 40 303 293 290 298 333 93 146 186 207 221 238 237 230 222 210 204 204 208 203 198
346 344 344 343 342 339 336 335 334 334 333 327 325 323 321 319 315 312 310 308 302 301 310 306 284 265 270 266 251 260 239 219 221 216 209 202 194 197 199 199 199 208 219 226 241 253 258 259 261 270 271 262 264 271 280 278 262 235 242 269 270 270 286 294 133 141 326 337 289 274 292 298 312 82 159 181 222 234 241 235 230 224 216 212 207 208 210 201
342 340 340 339 340 340 337 336 335 335 335 329 326 325 321 316 312 308 308 304 297 298 299 291 274 261 260 253 242 249 226 212 212 208 208 203 195 198 200 198 196 201 210 223 237 236 233 240 246 255 250 250 263 272 278 272 260 240 236 266 273 271 282 283 191 137 157 313 304 283 282 285 293 290 182 181 233 242 242 239 227 220 215 213 212 212 211 206
339 338 337 336 337 338 336 337 336 337 339 335 330 326 322 317 312 307 302 300 307 305 291 268 246 259 245 218 230 232 194 196 195 198 203 202 202 204 199 190 182 179 190 210 215 208 213 223 234 251 245 241 250 255 259 267 283 294 287 284 282 275 273 275 273 104 344 308 302 290 281 279 291 296 201 186 231 239 242 244 229 224 218 212 214 217 213 209
337 337 336 335 335 336 335 335 336 339 342 341 336 331 330 327 315 305 319 329 301 287 290 224 208 267 294 242 239 237 201 183 177 191 202 203 205 203 199 196 191 193 206 210 196 198 211 220 227 244 247 247 248 247 259 277 295 301 293 287 289 283 277 280 286 327 349 309 294 286 288 290 294 298 284 203 222 238 244 241 230 226 220 217 218 219 217 212
337 336 335 334 334 335 335 333 336 339 342 347 348 346 349 343 323 288 346 315 278 260 274 260 238 264 281 272 255 250 239 217 201 198 202 205 202 199 199 200 201 209 221 225 202 188 208 233 234 238 247 253 255 254 267 281 290 291 285 279 275 276 278 277 282 323 31 297 292 290 289 291 290 291 291 248 223 241 238 231 228 225 222 220 222 223 218 212
335 335 333 332 333 334 334 333 335 338 344 352 355 4 28 9 350 318 326 312 287 273 272 270 259 258 264 263 254 255 252 240 229 214 208 203 193 194 192 193 205 214 219 226 220 176 203 241 244 248 258 261 261 264 269 274 273 271 273 273 270 269 272 274 279 310 72 286 294 293 286 285 283 283 288 273 239 248 241 232 229 227 226 221 226 229 221 212
334 334 331 330 331 333 334 334 335 339 347 350 353 17 39 17 355 328 321 298 297 296 277 274 266 260 270 267 256 246 237 243 235 215 216 209 194 197 188 188 214 222 206 212 219 207 222 245 249 247 256 259 258 264 264 262 263 264 263 266 268 267 272 275 266 199 173 272 295 298 291 287 285 282 281 270 256 259 248 237 235 230 228 223 227 230 222 213
333 333 331 329 329 332 333 333 334 337 346 348 357 17 11 355 345 342 327 279 294 303 280 268 254 261 285 283 263 228 216 231 236 219 220 215 205 211 207 199 222 230 208 204 220 233 238 248 251 245 240 251 254 251 254 258 256 253 253 259 262 262 271 274 225 173 256 277 282 292 292 285 281 270 265 262 256 263 246 234 237 232 230 228 230 232 224 215
334 333 331 329 329 333 333 330 327 329 340 347 359 4 347 340 342 344 330 269 284 297 275 237 199 256 275 44 18 195 202 219 229 222 218 215 210 215 223 225 232 234 223 222 228 239 254 244 114 206 219 240 260 248 241 254 254 244 244 253 263 267 269 274 271 285 298 278 253 280 288 278 274 263 256 247 221 241 233 222 231 229 230 231 232 234 227 219
334 333 331 330 330 334 335 332 323 328 336 331 336 344 335 334 338 342 328 269 269 239 222 175 158 191 106 38 54 162 197 210 215 217 207 211 210 205 221 230 234 238 230 230 233 241 255 236 154 210 229 238 260 257 243 253 265 257 247 246 257 266 267 271 280 293 297 273 191 322 299 286 290 281 271 259 239 251 243 230 239 233 223 224 229 229 225 221
334 332 331 331 331 334 339 339 319 329 338 312 312 329 329 328 332 339 329 270 264 155 167 166 156 72 53 16 105 175 194 177 196 226 212 208 206 204 219 216 216 247 246 231 236 247 255 238 217 242 252 249 252 254 252 253 261 265 259 249 252 261 263 267 275 276 279 276 289 325 297 291 294 283 276 270 264 272 272 263 260 249 226 219 226 227 222 220
334 332 329 331 331 333 339 329 317 333 335 291 307 324 326 324 325 336 317 257 252 123 124 134 121 48 42 66 184 209 221 115 165 216 210 203 194 202 224 207 202 236 240 214 240 229 220 229 231 243 251 249 246 249 245 237 249 263 269 263 258 257 258 262 269 270 272 281 280 270 272 282 284 279 276 266 265 275 273 269 267 257 238 225 225 226 222 221
333 330 328 329 329 331 333 324 321 328 295 284 309 320 319 318 314 317 291 273 267 130 106 119 118 41 28 318 212 253 322 341 251 141 161 196 187 196 226 226 227 219 188 207 239 168 182 219 220 223 237 243 244 254 249 229 246 265 267 262 263 259 261 267 270 270 271 275 274 260 254 272 280 284 275 245 253 276 275 272 271 262 249 233 228 227 222 223
331 329 325 325 326 326 326 323 320 312 291 289 306 310 315 311 293 272 259 278 333 142 110 116 158 24 355 265 208 269 308 319 335 105 139 187 189 196 239 238 243 231 199 219 245 227 160 203 214 220 236 252 257 261 256 238 248 270 268 256 259 256 257 261 262 269 271 262 265 271 268 269 279 292 290 236 240 284 290 280 276 274 269 250 234 230 223 224
328 326 323 320 323 324 326 331 322 304 293 288 293 308 310 263 251 234 220 266 355 110 121 48 105 322 335 296 197 346 356 62 40 131 158 174 191 204 280 239 232 239 221 224 245 257 229 137 179 242 246 261 277 275 256 245 253 269 265 256 256 251 247 250 251 261 269 260 258 265 264 260 271 290 295 263 239 313 312 295 293 301 295 282 241 233 227 225
327 324 320 317 319 322 327 332 318 304 289 277 292 323 223 204 236 239 212 289 324 11 163 46 30 348 351 352 295 6 14 73 46 175 193 168 186 207 235 210 209 228 230 226 235 245 232 198 208 239 242 253 268 269 253 242 248 255 256 262 266 256 247 244 242 238 248 263 265 261 255 251 260 270 277 290 306 309 305 296 300 306 307 310 282 243 239 233
327 322 318 315 314 317 322 319 312 308 280 258 239 176 203 209 227 233 221 287 284 356 39 33 12 354 346 336 331 2 347 12 20 346 273 206 192 193 226 248 255 233 233 233 217 224 233 227 227 229 229 239 249 257 242 220 226 240 244 254 260 262 258 249 249 242 244 267 281 274 260 256 263 270 271 278 282 283 285 281 287 295 296 297 289 263 257 245
329 323 318 315 311 313 320 318 315 304 264 233 201 196 216 234 230 225 233 242 313 22 0 332 331 330 319 302 334 2 312 332 358 334 323 259 229 138 88 33 358 277 257 282 264 253 247 221 217 221 208 219 236 249 254 211 202 223 232 246 253 262 269 262 262 261 261 275 285 114 257 269 270 273 267 269 274 282 295 287 281 281 280 284 285 272 264 256
332 324 320 319 313 312 320 325 320 284 228 199 207 202 211 231 232 218 233 239 31 7 315 331 317 300 295 298 27 359 288 88 16 321 271 238 225 162 98 51 23 316 269 276 270 269 269 246 210 214 138 169 225 247 300 306 261 244 254 267 266 269 272 271 275 275 278 289 279 163 215 272 277 317 337 295 293 288 284 278 276 278 283 296 308 302 284 268
335 327 321 321 315 311 320 328 315 228 191 196 218 208 208 230 239 236 243 285 15 335 312 320 304 288 276 179 109 29 343 31 28 337 293 241 231 83 67 45 25 1 291 264 261 269 269 257 105 83 80 302 282 316 315 294 271 263 270 259 263 277 277 275 282 287 295 296 281 241 246 265 274 285 272 255 258 281 301 316 329 337 340 339 336 331 318 293
339 334 322 320 318 312 318 329 295 182 183 207 221 214 221 248 299 306 349 352 343 341 320 287 266 271 264 212 162 104 18 332 342 328 155 95 61 56 60 52 23 7 346 301 302 309 272 253 72 8 208 99 355 328 294 279 279 271 242 255 291 321 295 285 284 289 290 279 273 263 262 264 266 267 256 248 272 350 359 4 12 14 10 1 353 349 343 329
344 343 327 317 321 321 327 340 167 170 187 219 225 225 239 286 15 13 10 351 318 339 317 277 240 278 266 241 172 99 2 317 334 321 223 145 96 40 44 69 38 10 0 334 320 38 308 284 303 292 254 77 10 306 263 256 271 272 266 293 328 290 250 264 272 270 268 271 274 272 273 278 276 269 130 58 28 24 16 12 15 16 13 9 5 360 354 347
346 348 335 320 333 346 1 95 159 170 191 223 228 239 275 298 40 24 10 352 314 303 288 266 265 313 266 261 201 56 349 299 342 337 281 197 120 25 15 71 51 21 10 319 287 61 322 285 257 163 268 318 327 271 240 208 219 259 293 318 302 266 253 240 246 260 270 272 273 273 274 276 277 283 62 56 37 27 15 12 14 12 11 7 5 4 2 357
349 351 305 304 337 355 5 148 147 180 205 222 229 232 262 280 67 42 11 350 312 283 279 269 263 238 251 275 277 40 352 307 330 324 272 275 57 45 15 8 21 13 10 322 296 339 316 286 241 147 223 318 295 253 255 233 194 229 271 269 244 264 277 265 257 265 273 273 272 275 274 268 270 358 68 54 38 29 17 14 8 3 5 4 2 3 2 360
351 339 252 301 329 350 31 141 162 201 214 223 244 242 65 3 81 59 15 353 313 280 291 288 261 253 252 265 271 281 312 295 293 275 254 277 122 91 53 13 337 353 350 303 301 327 291 269 266 237 236 288 277 263 293 301 287 270 273 269 255 255 268 270 264 256 260 268 269 269 269 263 139 89 85 67 45 30 18 10 1 360 1 359 359 358 357 358
351 320 263 318 320 35 65 196 194 215 224 230 255 253 323 332 298 322 21 307 279 277 299 299 277 274 284 271 254 250 271 265 252 252 255 235 219 174 65 18 337 341 318 269 269 359 311 268 273 276 274 272 277 311 311 298 293 284 279 280 277 273 274 271 263 256 254 263 267 266 270 269 135 125 103 79 47 21 17 3 353 354 353 350 351 352 352 354
345 305 303 307 294 107 264 237 201 218 238 243 271 246 300 324 277 275 265 251 262 256 257 273 270 269 271 268 271 269 265 265 251 245 247 220 198 78 77 31 345 336 315 283 297 35 335 278 270 273 273 274 281 287 274 266 266 262 263 279 277 270 273 269 268 276 274 265 268 267 269 269 149 144 115 57 7 356 3 354 345 345 346 345 343 345 346 347
327 307 313 313 286 186 257 247 194 209 228 220 310 238 228 262 253 261 260 251 261 248 237 248 245 247 251 252 260 248 237 250 252 244 234 197 132 92 88 57 349 303 290 273 255 42 317 266 267 274 277 274 266 253 240 239 242 235 230 282 295 278 276 276 281 295 285 262 264 260 261 263 158 153 168 351 343 338 337 338 338 337 339 339 339 342 343 343
317 304 315 339 347 190 246 261 224 230 216 197 242 229 214 235 247 256 262 256 255 254 258 257 239 241 242 226 240 240 226 235 242 233 242 225 146 103 89 62 350 289 332 1 350 4 304 270 280 287 284 273 242 217 205 207 221 236 249 287 297 288 290 290 282 281 266 258 261 260 261 257 190 189 306 315 317 319 320 326 331 330 331 334 338 341 340 340
318 296 295 355 14 178 265 327 319 280 236 225 253 242 229 230 228 240 262 264 254 254 268 267 247 242 233 221 237 239 230 239 245 226 231 227 163 130 113 62 353 275 41 48 344 316 284 274 282 279 276 272 258 258 280 278 264 282 286 281 279 276 280 285 277 264 259 263 264 259 262 265 258 288 313 313 311 313 316 321 324 324 326 330 333 334 333 334
324 301 296 353 17 58 63 33 335 288 275 277 267 247 243 244 224 210 243 254 247 242 255 266 261 249 235 226 238 241 231 232 241 245 243 234 203 169 157 48 294 257 123 56 300 282 270 265 263 260 264 272 276 285 307 313 296 284 282 281 280 277 276 278 270 261 266 275 271 260 264 274 277 286 299 302 306 311 313 316 319 322 324 324 323 321 321 322
303 319 356 350 351 64 95 64 0 313 309 292 281 263 249 252 245 208 213 230 247 245 249 251 243 244 239 229 241 248 239 232 236 246 251 248 247 225 201 240 258 209 175 233 261 263 262 261 260 260 263 268 275 282 288 287 278 275 276 274 274 274 273 269 263 263 271 277 270 265 269 274 276 279 284 290 298 303 304 309 316 319 319 316 313 313 313 315
281 343 10 353 321 299 52 19 351 338 319 286 279 288 269 255 250 232 209 215 235 236 236 226 218 234 242 238 247 250 240 239 242 246 250 250 254 248 233 242 243 206 215 244 252 264 269 264 264 268 267 268 272 276 277 275 272 271 270 270 271 269 266 265 263 266 269 266 268 275 276 274 277 281 283 287 292 291 293 301 308 309 307 306 307 308 309 313
309 306 324 335 308 297 314 317 316 308 289 280 274 264 264 260 254 252 250 254 243 226 234 244 230 223 226 228 242 248 247 251 249 242 245 251 254 257 262 262 246 219 236 248 241 257 273 268 269 272 271 271 271 271 271 270 269 268 268 267 267 266 265 266 266 267 267 266 270 277 277 276 279 281 281 283 286 287 289 293 296 297 298 301 304 305 308 314
329 317 322 318 293 281 278 273 284 287 266 252 255 252 254 261 263 263 263 266 259 240 236 248 248 243 234 228 241 249 263 293 270 252 249 251 252 257 266 270 253 226 236 245 245 258 270 279 284 280 275 272 270 268 268 266 268 270 269 266 267 270 268 265 264 264 265 267 270 273 275 276 275 276 279 280 282 284 288 290 290 293 298 303 306 307 312 317
293 283 300 301 287 274 260 248 252 272 261 233 237 253 258 255 270 283 268 256 268 269 257 265 283 274 243 236 244 250 274 2 290 279 275 263 266 273 270 268 267 254 245 248 259 264 263 274 281 277 273 272 272 272 273 273 273 269 265 263 262 262 261 261 261 261 262 267 269 270 272 274 280 287 287 286 288 291 293 296 299 301 304 308 310 310 312 316
304 280 281 286 277 259 255 247 233 246 267 269 257 269 274 264 274 285 267 226 193 225 34 11 335 292 249 246 251 266 310 314 291 292 288 274 269 269 265 262 262 262 260 263 267 265 261 270 276 271 271 275 278 280 282 280 272 262 259 259 256 256 259 263 264 265 266 268 269 267 269 277 290 295 290 290 296 299 300 304 307 308 308 308 308 309 313 318
Height
1560 1559 1558 1557 1556 1555 1554 1553 1552 1551 1550 1549 1548 1547 1546 1545 1544 1544 1543 1542 1541 1541 1540 1539 1538 1537 1536 1535 1534 1534 1533 1532 1532 1531 1531 1531 1531 1531 1531 1531 1532 1532 1533 1533 1534 1535 1535 1536 1537 1537 1537 1536 1536 1535 1536 1537 1536 1535 1532 1532 1532 1528 1527 1524 1523 1522 1522 1521 1519 1518 1520 1520 1519 1518 1520 1521 1521 1521 1520 1521 1521 1521 1521 1522 1521 1522 1523 1523
1560 1559 1558 1557 1556 1555 1554 1552 1551 1550 1549 1548 1547 1546 1545 1544 1544 1543 1542 1541 1540 1540 1539 1538 1537 1536 1535 1534 1534 1533 1532 1531 1530 1530 1530 1530 1530 1530 1530 1531 1531 1532 1532 1533 1534 1535 1536 1536 1537 1537 1536 1534 1535 1535 1535 1535 1536 1533 1529 1531 1529 1524 1523 1521 1521 1520 1520 1521 1518 1517 1518 1519 1519 1517 1519 1520 1519 1518 1518 1517 1518 1520 1520 1520 1520 1521 1521 1522
1559 1558 1557 1556 1555 1554 1553 1552 1551 1550 1549 1547 1546 1545 1544 1543 1543 1542 1541 1540 1539 1539 1538 1537 1536 1535 1534 1534 1533 1532 1531 1530 1529 1529 1529 1529 1529 1529 1530 1530 1531 1532 1532 1533 1534 1535 1535 1536 1536 1536 1535 1533 1533 1535 1534 1534 1534 1530 1530 1531 1524 1520 1521 1520 1520 1520 1520 1520 1518 1517 1517 1517 1517 1517 1518 1519 1518 1516 1515 1514 1514 1516 1518 1518 1518 1519 1520 1521
1559 1558 1557 1555 1555 1554 1553 1552 1550 1549 1548 1547 1545 1544 1543 1543 1542 1541 1540 1539 1538 1537 1537 1536 1536 1535 1534 1533 1532 1531 1530 1529 1528 1529 1528 1528 1529 1529 1530 1530 1531 1531 1532 1533 1534 1535 1535 1535 1535 1535 1534 1531 1532 1534 1532 1532 1532 1529 1530 1528 1521 1520 1521 1520 1519 1520 1520 1520 1519 1517 1516 1516 1515 1516 1516 1517 1518 1515 1510 1511 1513 1513 1515 1516 1517 1518 1519 1520
1559 1558 1556 1555 1554 1553 1552 1551 1550 1549 1547 1546 1545 1543 1542 1542 1541 1540 1539 1538 1537 1536 1536 1535 1534 1534 1533 1532 1532 1531 1530 1528 1527 1528 1528 1528 1528 1529 1529 1530 1531 1531 1532 1533 1533 1534 1534 1535 1535 1534 1532 1529 1530 1531 1529 1531 1532 1530 1526 1524 1522 1521 1521 1520 1519 1520 1520 1520 1519 1517 1516 1515 1513 1514 1514 1514 1516 1513 1510 1512 1513 1514 1515 1515 1516 1516 1517 1518
1559 1557 1556 1555 1554 1552 1551 1550 1549 1548 1546 1545 1544 1543 1542 1541 1540 1539 1538 1537 1536 1535 1535 1534 1534 1533 1532 1531 1531 1530 1530 1528 1527 1528 1528 1527 1528 1528 1529 1530 1531 1531 1532 1533 1534 1534 1534 1534 1533 1531 1530 1528 1529 1529 1529 1531 1532 1530 1524 1522 1522 1522 1521 1520 1519 1519 1519 1519 1517 1516 1514 1514 1513 1512 1511 1512 1511 1510 1511 1513 1513 1514 1515 1515 1515 1515 1516 1517
1558 1557 1556 1554 1553 1552 1551 1550 1548 1547 1545 1544 1543 1542 1541 1540 1539 1538 1537 1536 1535 1534 1534 1533 1533 1532 1531 1531 1530 1529 1529 1528 1527 1528 1527 1527 1528 1528 1529 1530 1531 1531 1532 1533 1534 1534 1534 1533 1531 1530 1529 1527 1528 1528 1529 1531 1530 1530 1524 1521 1522 1522 1521 1519 1518 1517 1517 1517 1515 1515 1514 1513 1512 1510 1509 1509 1507 1509 1511 1511 1512 1513 1513 1514 1514 1514 1515 1516
1558 1557 1555 1554 1553 1551 1550 1549 1548 1546 1545 1543 1542 1541 1540 1539 1538 1537 1536 1535 1534 1533 1533 1532 1532 1531 1531 1530 1529 1528 1527 1527 1527 1527 1527 1527 1527 1528 1528 1529 1531 1531 1532 1534 1534 1534 1533 1532 1531 1531 1528 1526 1528 1528 1529 1529 1526 1526 1525 1521 1521 1521 1519 1518 1517 1516 1515 1515 1514 1514 1512 1511 1510 1510 1508 1506 1505 1508 1509 1509 1510 1511 1512 1512 1513 1513 1514 1515
1557 1556 1555 1553 1552 1550 1549 1548 1547 1545 1544 1542 1541 1540 1539 1538 1537 1536 1535 1534 1533 1532 1531 1531 1530 1530 1530 1529 1529 1526 1524 1525 1525 1526 1527 1527 1527 1528 1528 1529 1531 1531 1533 1533 1534 1534 1532 1532 1532 1531 1528 1528 1529 1527 1528 1528 1524 1524 1524 1522 1521 1519 1517 1516 1514 1513 1514 1513 1513 1512 1510 1508 1509 1510 1507 1502 1503 1506 1507 1508 1508 1509 1511 1511 1512 1512 1513 1514
1557 1555 1554 1552 1551 1549 1548 1547 1546 1544 1543 1541 1540 1539 1538 1537 1536 1535 1534 1533 1532 1531 1530 1530 1529 1529 1529 1529 1529 1525 1522 1524 1524 1525 1526 1526 1527 1527 1528 1529 1530 1531 1533 1533 1533 1533 1532 1532 1532 1532 1530 1529 1529 1527 1527 1527 1525 1524 1524 1522 1520 1517 1515 1514 1513 1512 1512 1512 1512 1511 1508 1506 1508 1511 1506 1499 1501 1504 1506 1507 1507 1508 1509 1510 1510 1511 1511 1512
1556 1554 1553 1551 1550 1548 1547 1546 1544 1543 1541 1540 1539 1538 1536 1535 1534 1533 1533 1532 1531 1530 1529 1529 1528 1528 1528 1528 1527 1523 1522 1524 1523 1524 1525 1526 1527 1527 1528 1529 1530 1531 1532 1533 1533 1533 1533 1532 1532 1532 1529 1528 1528 1525 1524 1525 1525 1524 1522 1520 1516 1513 1511 1510 1511 1512 1510 1510 1511 1509 1506 1504 1507 1508 1502 1499 1502 1503 1505 1506 1506 1507 1508 1509 1509 1510 1510 1511
1555 1554 1552 1550 1549 1547 1545 1544 1543 1542 1540 1539 1537 1536 1535 1534 1533 1532 1531 1530 1529 1529 1528 1527 1527 1527 1527 1527 1525 1523 1522 1523 1523 1523 1524 1525 1526 1527 1528 1528 1529 1531 1532 1533 1532 1532 1532 1532 1532 1531 1528 1528 1526 1523 1523 1524 1524 1522 1520 1519 1514 1510 1508 1507 1509 1511 1510 1509 1510 1509 1506 1503 1504 1503 1498 1500 1502 1502 1504 1504 1505 1506 1507 1508 1508 1509 1509 1509
1555 1553 1551 1549 1547 1546 1544 1543 1542 1540 1539 1537 1536 1535 1534 1532 1531 1530 1529 1529 1528 1527 1527 1526 1526 1526 1526 1525 1522 1521 1521 1521 1521 1522 1523 1524 1525 1526 1527 1528 1528 1530 1531 1532 1531 1531 1531 1531 1532 1531 1529 1528 1525 1524 1524 1522 1522 1520 1516 1516 1516 1511 1506 1505 1508 1509 1508 1509 1509 1510 1509 1501 1495 1495 1496 1500 1501 1501 1502 1502 1503 1505 1506 1507 1507 1508 1508 1508
1554 1552 1550 1548 1546 1544 1543 1541 1540 1539 1537 1536 1534 1533 1532 1531 1530 1529 1528 1527 1526 1526 1525 1525 1525 1525 1525 1522 1519 1519 1519 1519 1520 1521 1522 1523 1524 1525 1526 1527 1528 1528 1529 1530 1530 1530 1530 1530 1531 1531 1529 1528 1526 1525 1523 1519 1518 1517 1515 1514 1514 1514 1507 1502 1505 1507 1507 1509 1508 1509 1510 1499 1489 1491 1496 1499 1500 1500 1500 1500 1502 1503 1504 1506 1506 1507 1508 1507
1553 1551 1550 1548 1546 1544 1541 1540 1539 1537 1536 1534 1533 1531 1530 1529 1528 1527 1526 1525 1525 1524 1524 1524 1523 1523 1523 1520 1517 1517 1517 1518 1518 1519 1521 1522 1523 1524 1525 1526 1527 1527 1528 1528 1528 1529 1529 1530 1530 1529 1527 1527 1526 1525 1521 1516 1513 1513 1518 1515 1509 1511 1506 1500 1503 1506 1506 1507 1506 1508 1508 1499 1490 1491 1495 1497 1498 1498 1498 1498 1500 1501 1503 1504 1505 1506 1507 1506
1553 1551 1549 1547 1545 1543 1541 1539 1537 1536 1535 1533 1531 1530 1528 1527 1526 1525 1524 1524 1523 1522 1522 1522 1522 1523 1521 1517 1515 1515 1515 1516 1516 1518 1519 1520 1522 1524 1524 1525 1526 1526 1527 1527 1527 1528 1529 1529 1529 1528 1526 1525 1523 1522 1520 1518 1513 1510 1515 1516 1510 1510 1508 1503 1502 1503 1505 1505 1504 1506 1507 1501 1492 1490 1493 1495 1497 1497 1496 1496 1497 1499 1500 1502 1503 1504 1505 1505
1552 1550 1548 1547 1545 1543 1540 1538 1536 1535 1533 1532 1530 1528 1527 1525 1524 1523 1522 1522 1522 1521 1522 1521 1521 1522 1518 1515 1515 1515 1514 1515 1515 1516 1517 1519 1521 1522 1523 1524 1525 1526 1526 1527 1527 1527 1528 1528 1528 1526 1524 1523 1520 1520 1524 1524 1517 1509 1510 1513 1511 1509 1510 1508 1503 1501 1503 1504 1503 1502 1502 1500 1492 1487 1490 1493 1494 1495 1494 1494 1494 1496 1497 1499 1501 1502 1503 1504
1552 1550 1548 1546 1544 1542 1540 1537 1535 1534 1532 1531 1528 1527 1525 1523 1522 1521 1520 1520 1520 1520 1520 1519 1520 1520 1515 1514 1514 1514 1514 1514 1514 1515 1516 1518 1519 1520 1522 1523 1524 1525 1525 1525 1525 1525 1526 1525 1525 1523 1520 1520 1519 1520 1526 1523 1515 1512 1514 1514 1511 1508 1508 1507 1503 1499 1501 1503 1502 1500 1498 1495 1489 1484 1486 1490 1492 1492 1492 1492 1492 1493 1495 1496 1498 1499 1500 1501
1551 1549 1547 1545 1543 1542 1539 1537 1535 1533 1532 1530 1528 1526 1523 1522 1521 1520 1519 1520 1519 1519 1517 1516 1517 1515 1512 1513 1514 1514 1514 1513 1513 1514 1515 1516 1518 1519 1520 1522 1522 1523 1522 1522 1521 1522 1523 1522 1523 1523 1519 1517 1516 1516 1518 1515 1512 1515 1516 1515 1514 1511 1507 1504 1500 1497 1500 1504 1501 1498 1496 1493 1489 1484 1483 1487 1489 1490 1490 1490 1491 1491 1492 1494 1495 1496 1497 1499
1550 1548 1546 1544 1543 1541 1539 1537 1535 1533 1531 1529 1527 1525 1523 1523 1520 1518 1519 1519 1518 1516 1514 1514 1514 1511 1510 1511 1513 1513 1513 1513 1513 1514 1514 1515 1516 1518 1519 1520 1521 1521 1519 1518 1518 1518 1520 1521 1519 1517 1515 1512 1511 1512 1513 1512 1513 1516 1516 1515 1513 1511 1507 1503 1499 1496 1499 1505 1500 1494 1494 1492 1489 1485 1480 1483 1486 1487 1487 1488 1488 1489 1489 1491 1492 1493 1494 1496
1549 1548 1545 1544 1542 1541 1539 1537 1535 1533 1531 1529 1528 1526 1527 1527 1524 1523 1521 1516 1513 1514 1511 1511 1511 1510 1508 1509 1510 1511 1512 1512 1512 1513 1513 1514 1516 1516 1516 1517 1518 1517 1515 1514 1515 1516 1520 1519 1514 1510 1508 1508 1509 1511 1512 1513 1514 1515 1515 1514 1510 1508 1505 1500 1497 1496 1499 1504 1499 1492 1492 1491 1486 1482 1477 1478 1483 1483 1483 1484 1485 1486 1487 1488 1489 1490 1491 1493
1548 1547 1544 1543 1541 1540 1538 1537 1535 1533 1532 1531 1529 1529 1529 1529 1529 1528 1525 1517 1511 1510 1508 1507 1508 1506 1506 1506 1507 1508 1510 1510 1510 1511 1511 1513 1515 1513 1512 1514 1514 1512 1510 1512 1515 1517 1519 1515 1508 1505 1506 1508 1510 1510 1512 1514 1514 1514 1513 1512 1510 1505 1501 1497 1495 1496 1499 1502 1498 1492 1492 1489 1482 1480 1477 1475 1477 1478 1479 1481 1482 1483 1484 1485 1486 1486 1488 1491
1547 1545 1544 1542 1540 1539 1538 1536 1535 1534 1533 1532 1531 1530 1529 1529 1528 1527 1527 1521 1511 1506 1505 1504 1505 1505 1504 1505 1504 1505 1507 1507 1507 1508 1508 1511 1512 1511 1510 1510 1510 1508 1508 1511 1513 1515 1515 1509 1503 1503 1506 1509 1510 1510 1513 1513 1512 1511 1510 1510 1508 1502 1502 1501 1496 1495 1497 1496 1496 1494 1492 1488 1480 1478 1475 1471 1472 1474 1477 1479 1480 1481 1482 1482 1483 1484 1486 1487
1545 1544 1542 1540 1539 1539 1537 1536 1535 1534 1533 1533 1532 1531 1530 1529 1528 1526 1526 1520 1510 1504 1503 1503 1503 1504 1504 1503 1503 1503 1505 1505 1506 1506 1506 1508 1509 1510 1509 1507 1507 1507 1507 1508 1509 1510 1508 1503 1502 1505 1506 1509 1510 1510 1512 1512 1509 1506 1505 1506 1504 1500 1501 1500 1494 1494 1494 1490 1490 1492 1493 1486 1477 1476 1473 1469 1470 1473 1474 1476 1478 1478 1479 1480 1481 1481 1483 1484
1544 1542 1540 1539 1538 1537 1536 1535 1534 1534 1534 1532 1532 1531 1530 1529 1528 1527 1526 1519 1509 1502 1501 1502 1503 1503 1503 1502 1502 1503 1503 1504 1504 1504 1504 1504 1506 1507 1506 1506 1507 1506 1504 1504 1506 1507 1504 1500 1503 1507 1507 1508 1510 1509 1508 1509 1507 1503 1500 1499 1500 1500 1499 1497 1495 1497 1499 1495 1489 1492 1501 1493 1476 1475 1475 1470 1470 1470 1470 1472 1474 1475 1476 1478 1478 1478 1479 1481
1543 1541 1539 1538 1536 1535 1536 1534 1534 1535 1533 1532 1532 1531 1530 1529 1528 1528 1526 1519 1508 1500 1499 1502 1502 1502 1502 1502 1502 1502 1503 1502 1501 1502 1502 1502 1504 1505 1505 1505 1504 1504 1501 1501 1504 1504 1501 1500 1502 1505 1506 1506 1508 1507 1505 1505 1507 1504 1496 1493 1496 1497 1497 1497 1496 1499 1503 1499 1488 1490 1503 1499 1482 1477 1475 1470 1471 1470 1468 1469 1468 1470 1472 1473 1474 1474 1476 1478
1542 1540 1538 1537 1535 1534 1535 1534 1534 1534 1533 1533 1531 1530 1531 1529 1528 1528 1526 1521 1510 1499 1499 1501 1501 1502 1502 1502 1502 1501 1502 1500 1499 1500 1500 1501 1502 1504 1504 1501 1502 1504 1500 1503 1508 1503 1499 1501 1502 1503 1504 1504 1505 1504 1500 1500 1505 1502 1493 1492 1496 1495 1496 1497 1496 1498 1496 1492 1488 1486 1493 1497 1489 1479 1471 1469 1472 1471 1469 1468 1465 1465 1467 1469 1470 1471 1473 1474
1541 1539 1537 1536 1535 1534 1534 1534 1533 1533 1533 1532 1530 1531 1530 1528 1530 1528 1528 1529 1513 1498 1499 1500 1500 1502 1501 1502 1502 1500 1500 1498 1497 1499 1499 1500 1501 1503 1503 1499 1499 1501 1499 1505 1508 1499 1495 1500 1501 1501 1503 1503 1500 1498 1495 1497 1502 1496 1489 1493 1494 1493 1495 1494 1494 1495 1489 1492 1497 1487 1485 1496 1491 1475 1466 1467 1473 1473 1469 1466 1462 1460 1461 1464 1467 1469 1470 1472
1541 1538 1536 1535 1534 1533 1533 1533 1532 1532 1532 1531 1531 1531 1528 1530 1531 1524 1529 1530 1509 1496 1501 1500 1500 1503 1501 1501 1500 1499 1498 1497 1497 1498 1498 1500 1500 1501 1501 1498 1497 1499 1499 1501 1501 1495 1495 1498 1498 1499 1501 1499 1495 1493 1492 1496 1497 1491 1490 1493 1492 1492 1492 1491 1493 1491 1488 1496 1502 1488 1482 1493 1490 1474 1466 1469 1473 1474 1467 1462 1459 1457 1458 1461 1464 1467 1468 1470
1540 1537 1535 1533 1532 1532 1531 1531 1531 1530 1530 1530 1531 1530 1529 1531 1528 1528 1536 1527 1503 1498 1502 1499 1501 1503 1501 1499 1498 1497 1497 1497 1497 1498 1498 1499 1500 1500 1499 1498 1498 1498 1498 1499 1498 1495 1494 1497 1498 1498 1498 1495 1492 1491 1491 1493 1493 1490 1492 1492 1490 1489 1486 1488 1488 1487 1495 1501 1495 1484 1477 1486 1491 1479 1468 1468 1469 1469 1466 1462 1458 1456 1457 1459 1462 1465 1467 1468
1538 1537 1535 1532 1531 1531 1530 1531 1530 1529 1529 1530 1529 1529 1531 1528 1524 1532 1535 1517 1502 1502 1501 1501 1503 1502 1502 1501 1499 1498 1497 1497 1497 1497 1497 1497 1498 1500 1499 1499 1498 1498 1499 1498 1496 1494 1493 1497 1497 1494 1494 1493 1493 1493 1490 1490 1490 1491 1493 1491 1492 1489 1483 1486 1486 1488 1506 1505 1484 1473 1470 1479 1491 1481 1467 1465 1463 1463 1465 1464 1461 1459 1458 1459 1462 1464 1465 1466
1537 1536 1534 1532 1531 1530 1530 1530 1529 1528 1529 1528 1529 1530 1529 1529 1529 1529 1520 1507 1507 1507 1502 1505 1505 1502 1504 1502 1501 1502 1500 1499 1498 1497 1496 1495 1495 1497 1498 1498 1497 1501 1502 1496 1494 1494 1491 1491 1490 1491 1491 1491 1494 1493 1489 1488 1490 1492 1492 1492 1499 1499 1494 1498 1496 1492 1500 1492 1473 1469 1474 1481 1483 1472 1464 1464 1461 1460 1461 1461 1461 1461 1460 1460 1462 1463 1463 1464
1536 1534 1533 1531 1529 1528 1528 1528 1527 1528 1527 1527 1530 1527 1526 1532 1531 1520 1508 1504 1510 1509 1505 1508 1506 1504 1505 1502 1502 1503 1501 1501 1499 1497 1497 1495 1494 1496 1499 1499 1498 1502 1502 1496 1496 1498 1493 1488 1485 1488 1490 1490 1492 1491 1488 1488 1489 1490 1489 1490 1498 1503 1508 1512 1504 1496 1494 1482 1470 1472 1481 1486 1478 1466 1462 1462 1459 1458 1458 1459 1461 1460 1460 1460 1460 1462 1462 1462
1534 1532 1531 1530 1528 1527 1527 1527 1526 1526 1527 1528 1528 1525 1529 1534 1524 1512 1507 1504 1507 1508 1507 1507 1506 1503 1502 1502 1504 1503 1501 1502 1500 1498 1497 1495 1495 1497 1499 1501 1501 1500 1500 1499 1499 1499 1501 1498 1489 1488 1490 1489 1489 1488 1487 1486 1485 1484 1481 1484 1490 1494 1503 1510 1503 1498 1495 1485 1477 1480 1487 1488 1478 1466 1460 1459 1458 1458 1459 1460 1460 1460 1460 1460 1461 1461 1462 1462
1533 1531 1530 1528 1527 1526 1525 1526 1526 1525 1526 1527 1525 1525 1530 1528 1514 1508 1510 1507 1507 1510 1507 1506 1506 1504 1501 1502 1505 1504 1504 1503 1500 1499 1498 1496 1499 1501 1502 1505 1504 1502 1501 1503 1500 1497 1502 1499 1488 1487 1488 1488 1489 1487 1486 1487 1487 1483 1479 1484 1488 1484 1488 1495 1493 1490 1492 1493 1489 1485 1483 1475 1466 1460 1456 1457 1459 1459 1461 1461 1460 1462 1462 1463 1464 1462 1461 1461
1532 1530 1529 1528 1527 1526 1525 1525 1525 1525 1526 1526 1525 1523 1521 1516 1510 1510 1512 1512 1512 1513 1509 1507 1505 1505 1503 1502 1504 1505 1505 1504 1501 1500 1500 1501 1503 1504 1506 1507 1507 1505 1504 1504 1501 1500 1502 1496 1487 1488 1488 1487 1490 1489 1486 1489 1489 1485 1484 1486 1483 1478 1481 1492 1494 1488 1493 1502 1493 1481 1477 1468 1462 1460 1454 1455 1460 1462 1463 1463 1462 1465 1465 1465 1465 1462 1461 1461
1531 1530 1528 1528 1527 1525 1524 1524 1524 1525 1526 1524 1523 1521 1514 1511 1513 1514 1514 1516 1515 1514 1513 1511 1508 1508 1507 1504 1505 1507 1506 1505 1503 1502 1502 1503 1506 1508 1508 1509 1509 1507 1506 1506 1503 1503 1506 1500 1489 1488 1490 1487 1488 1489 1485 1486 1487 1486 1487 1484 1479 1479 1481 1489 1501 1500 1500 1503 1490 1477 1478 1474 1470 1468 1459 1458 1466 1467 1467 1466 1465 1466 1466 1466 1465 1464 1463 1461
1529 1529 1528 1527 1526 1525 1524 1524 1524 1524 1525 1524 1522 1519 1515 1514 1516 1517 1517 1518 1517 1516 1516 1514 1512 1512 1511 1508 1508 1509 1509 1507 1504 1505 1504 1502 1507 1511 1510 1509 1510 1508 1508 1508 1505 1503 1507 1505 1494 1489 1492 1489 1485 1488 1487 1483 1483 1484 1484 1481 1483 1490 1489 1488 1501 1506 1503 1503 1492 1479 1477 1474 1471 1469 1466 1467 1471 1470 1470 1469 1468 1467 1467 1467 1466 1464 1463 1461
1529 1528 1528 1526 1526 1525 1524 1524 1524 1525 1525 1523 1520 1517 1516 1516 1517 1519 1520 1519 1518 1518 1516 1514 1514 1514 1513 1512 1510 1510 1512 1510 1507 1508 1507 1504 1508 1513 1512 1511 1511 1509 1508 1508 1506 1503 1504 1509 1503 1491 1490 1491 1486 1486 1488 1485 1482 1481 1481 1479 1481 1489 1491 1487 1491 1493 1495 1500 1496 1487 1481 1472 1467 1467 1469 1473 1472 1471 1472 1471 1470 1469 1468 1468 1466 1465 1464 1462
1529 1528 1527 1526 1525 1525 1524 1524 1525 1524 1522 1520 1517 1516 1516 1517 1518 1520 1521 1520 1519 1518 1516 1515 1516 1515 1514 1514 1513 1512 1513 1513 1510 1510 1509 1506 1509 1513 1513 1513 1512 1510 1510 1507 1506 1506 1504 1508 1509 1495 1489 1494 1491 1486 1488 1488 1486 1485 1485 1483 1482 1484 1484 1484 1483 1479 1484 1493 1494 1494 1488 1471 1464 1467 1469 1470 1471 1470 1471 1471 1471 1470 1469 1469 1468 1466 1466 1463
1530 1528 1526 1525 1525 1525 1525 1524 1523 1522 1519 1518 1517 1517 1518 1519 1519 1519 1521 1521 1520 1519 1518 1517 1516 1515 1515 1515 1514 1513 1514 1514 1512 1511 1509 1507 1509 1512 1513 1515 1513 1511 1510 1506 1506 1509 1507 1507 1509 1502 1496 1496 1491 1486 1489 1491 1490 1490 1489 1486 1486 1487 1487 1492 1491 1477 1475 1483 1484 1489 1488 1471 1462 1467 1467 1467 1469 1468 1468 1470 1470 1470 1470 1469 1468 1467 1466 1464
1530 1527 1525 1525 1525 1525 1525 1522 1521 1521 1519 1517 1518 1518 1519 1520 1520 1519 1520 1520 1519 1519 1519 1518 1517 1517 1516 1516 1514 1515 1515 1514 1511 1511 1510 1509 1510 1512 1514 1515 1514 1512 1510 1508 1507 1511 1512 1509 1508 1505 1498 1493 1489 1487 1491 1492 1490 1490 1489 1486 1486 1490 1492 1498 1498 1485 1480 1484 1479 1483 1488 1471 1460 1464 1466 1466 1467 1465 1466 1469 1469 1470 1470 1469 1469 1468 1466 1465
1532 1528 1526 1525 1524 1525 1524 1521 1519 1520 1519 1517 1518 1519 1520 1520 1520 1519 1519 1519 1518 1518 1518 1518 1517 1517 1516 1516 1516 1516 1516 1514 1512 1510 1510 1510 1511 1514 1515 1515 1515 1512 1511 1510 1509 1512 1513 1509 1507 1505 1495 1487 1486 1487 1489 1491 1490 1489 1489 1488 1490 1492 1492 1495 1495 1491 1493 1492 1485 1489 1491 1474 1461 1463 1464 1463 1465 1465 1466 1467 1468 1469 1469 1469 1469 1467 1466 1465
1532 1529 1527 1525 1524 1524 1523 1520 1518 1517 1517 1518 1519 1519 1519 1520 1519 1519 1518 1518 1518 1518 1518 1517 1516 1517 1517 1517 1517 1515 1516 1517 1513 1510 1510 1511 1512 1515 1516 1515 1515 1513 1511 1512 1512 1514 1514 1509 1507 1511 1506 1498 1494 1492 1492 1492 1491 1490 1490 1493 1494 1493 1494 1495 1492 1493 1497 1492 1486 1493 1492 1473 1461 1462 1462 1462 1463 1464 1465 1466 1467 1467 1467 1468 1468 1466 1466 1465
1531 1528 1527 1526 1525 1525 1523 1521 1520 1518 1517 1520 1520 1518 1518 1518 1518 1518 1518 1518 1518 1518 1518 1516 1516 1516 1516 1517 1517 1516 1516 1517 1514 1511 1511 1511 1512 1516 1516 1516 1515 1513 1513 1516 1515 1515 1515 1510 1509 1515 1516 1510 1505 1498 1493 1493 1494 1493 1492 1494 1495 1494 1495 1497 1495 1497 1497 1489 1485 1491 1487 1472 1463 1462 1463 1463 1463 1462 1462 1464 1466 1466 1466 1466 1466 1466 1465 1464
1533 1529 1526 1525 1525 1525 1524 1524 1524 1521 1519 1521 1520 1518 1518 1517 1516 1518 1519 1517 1517 1517 1517 1516 1515 1516 1516 1517 1518 1516 1514 1515 1515 1513 1512 1511 1511 1514 1516 1516 1515 1514 1515 1517 1517 1515 1515 1511 1510 1512 1511 1507 1502 1495 1492 1495 1498 1498 1496 1495 1495 1494 1493 1496 1499 1498 1494 1491 1490 1487 1482 1478 1474 1471 1470 1468 1465 1463 1462 1462 1464 1465 1465 1465 1464 1464 1464 1463
1534 1531 1529 1529 1527 1524 1524 1525 1525 1523 1522 1523 1521 1518 1519 1517 1516 1517 1518 1517 1517 1517 1517 1516 1516 1516 1516 1516 1517 1516 1514 1514 1514 1514 1513 1512 1510 1512 1516 1517 1515 1515 1516 1516 1517 1515 1514 1512 1509 1508 1507 1503 1499 1497 1497 1500 1501 1500 1499 1497 1495 1494 1493 1495 1497 1494 1492 1497 1495 1484 1481 1484 1481 1476 1474 1471 1469 1468 1465 1463 1464 1464 1464 1463 1460 1459 1460 1460
1534 1532 1533 1533 1530 1526 1525 1526 1526 1526 1525 1524 1522 1520 1520 1518 1517 1517 1517 1516 1517 1516 1516 1516 1515 1515 1515 1515 1516 1515 1514 1514 1514 1514 1513 1512 1511 1511 1512 1512 1513 1515 1515 1514 1515 1514 1514 1513 1509 1507 1507 1503 1501 1500 1500 1500 1500 1498 1498 1496 1494 1494 1494 1495 1494 1491 1492 1496 1491 1482 1481 1483 1478 1475 1473 1471 1470 1469 1467 1467 1466 1465 1463 1461 1458 1457 1457 1456
1535 1534 1534 1534 1532 1529 1529 1529 1529 1528 1526 1524 1523 1521 1521 1520 1518 1517 1517 1517 1517 1516 1517 1516 1514 1514 1515 1515 1515 1515 1513 1514 1514 1513 1513 1512 1512 1512 1512 1510 1510 1512 1514 1512 1513 1515 1516 1512 1508 1508 1508 1504 1501 1501 1500 1500 1499 1496 1494 1493 1491 1491 1491 1491 1491 1489 1488 1489 1485 1479 1478 1477 1475 1473 1471 1470 1470 1469 1467 1467 1467 1465 1463 1461 1460 1458 1456 1456
1537 1536 1536 1535 1532 1530 1530 1530 1529 1528 1525 1525 1524 1521 1521 1521 1519 1518 1518 1520 1519 1516 1516 1516 1514 1515 1515 1515 1515 1514 1512 1514 1514 1513 1514 1515 1514 1513 1513 1512 1510 1510 1512 1513 1513 1516 1517 1514 1508 1509 1510 1505 1500 1499 1498 1497 1496 1494 1491 1488 1487 1488 1488 1487 1487 1485 1484 1484 1482 1479 1477 1473 1470 1469 1468 1468 1469 1467 1466 1465 1464 1463 1462 1461 1460 1458 1457 1456
1537 1538 1538 1536 1533 1530 1529 1527 1527 1527 1524 1522 1522 1521 1520 1521 1520 1521 1520 1520 1520 1518 1517 1518 1517 1516 1516 1515 1515 1513 1514 1516 1516 1514 1515 1516 1515 1513 1512 1512 1511 1511 1512 1513 1514 1515 1517 1515 1509 1509 1511 1504 1496 1497 1496 1493 1495 1494 1489 1485 1486 1487 1485 1483 1481 1480 1480 1481 1482 1481 1477 1470 1466 1466 1468 1468 1467 1466 1465 1464 1463 1462 1462 1460 1459 1458 1457 1456
1537 1538 1538 1538 1534 1530 1528 1526 1526 1526 1523 1521 1521 1521 1522 1521 1521 1523 1522 1519 1520 1521 1520 1520 1520 1517 1515 1514 1514 1515 1517 1518 1517 1517 1517 1516 1515 1514 1513 1512 1513 1513 1513 1513 1514 1513 1514 1514 1511 1510 1510 1502 1495 1495 1493 1495 1499 1493 1481 1479 1481 1480 1479 1479 1476 1474 1474 1475 1479 1479 1474 1467 1465 1467 1468 1467 1466 1466 1465 1464 1464 1462 1461 1460 1458 1457 1456 1455